Scottsbluff, NE

9:12 PM MDT on March 24, 2017 (GMT -0600)
Heilig

Weather History for KBFF - January, 1999

Change the Weather History Date:

Thursday, January 7, 1999

  Actual Average Record
Temperature  
Mean Temperature 22 °F 27 °F  
Max Temperature 30 °F 40 °F 67 °F (2006)
Min Temperature 15 °F 13 °F -29 °F (1913)
Degree Days  
Heating Degree Days 42 38  
Month to date heating degree days 271  
Since 1 July heating degree days 3043  
Cooling Degree Days 0 0  
Month to date cooling degree days 0  
Year to date cooling degree days 0  
Moisture  
Dew Point 20 °F    
Average Humidity 86    
Maximum Humidity 96    
Minimum Humidity 72    
Precipitation  
Precipitation 0.00 in 0.02 in 0.70 in (1992)
Month to date precipitation 0.10  
Year to date precipitation 0.10  
Snow  
Snow 0.00 in 0.20 in 6.70 in (1992)
Month to date snowfall 1.3  
Since 1 July snowfall 17.3  
Snow Depth -    
Sea Level Pressure  
Sea Level Pressure 29.98 in    
Wind  
Wind Speed 8 mph (East)    
Max Wind Speed 14 mph    
Max Gust Speed -    
Visibility 7 miles    
Events Rain    
T = Trace of Precipitation, MM = Missing Value Source: NWS Daily Summary

Daily Weather History Graph

Daily Weather History Graph

Search for Another Location

Airport or City:

Trip Planner

Search our weather history database for the weather conditions in past years. The results will help you decide how hot, cold, wet, or windy it might be!

Date:

Astronomy

Jan. 07, 1999 Rise Set
Actual Time 7:22 AM MST 4:39 PM MST
Civil Twilight 6:50 AM MST 5:10 PM MST
Nautical Twilight 6:15 AM MST 5:45 PM MST
Astronomical Twilight 5:42 AM MST 6:19 PM MST
Moon 10:52 PM MST (1/7) 10:52 AM MST (1/7)
Length of Visible Light 10h 20m
Length of Day
9h 17m
Waning Gibbous, 67% of the Moon is Illuminated
Jan 7
Waning Gibbous
Jan 9
Last Quarter
Jan 17
New
Jan 24
First Quarter
Jan 31
Full

Hourly Weather History & Observations

Time (MST) Temp. Windchill Dew Point Humidity Pressure Visibility Wind Dir Wind Speed Gust Speed Precip Events Conditions
12:54 AM 19.9 °F 7.3 °F 15.1 °F 81% 30.12 in 10.0 mi ESE 12.7 mph - N/A   Overcast
1:54 AM 19.0 °F 8.2 °F 16.0 °F 88% 30.12 in 10.0 mi ESE 9.2 mph - N/A   Partly Cloudy
2:54 AM 18.0 °F 7.7 °F 15.1 °F 88% 30.12 in 10.0 mi East 8.1 mph - N/A   Partly Cloudy
3:54 AM 18.0 °F 12.7 °F 15.1 °F 88% 30.10 in 10.0 mi ENE 3.5 mph - N/A   Clear
4:54 AM 16.0 °F 10.4 °F 14.0 °F 92% 30.09 in 10.0 mi NNW 3.5 mph - N/A   Clear
5:54 AM 16.0 °F - 14.0 °F 92% 30.07 in 10.0 mi Calm Calm - N/A   Clear
6:54 AM 15.1 °F 6.4 °F 12.9 °F 91% 30.07 in 8.0 mi East 5.8 mph - N/A   Clear
7:54 AM 16.0 °F 7.4 °F 14.0 °F 92% 30.05 in 4.0 mi East 5.8 mph - N/A   Clear
8:54 AM 19.0 °F 9.0 °F 18.0 °F 96% 30.03 in 4.0 mi SE 8.1 mph - N/A   Clear
9:54 AM 24.1 °F 15.2 °F 19.9 °F 84% 30.01 in 5.0 mi East 8.1 mph - N/A   Clear
10:54 AM 28.0 °F 20.0 °F 21.9 °F 78% 29.96 in 6.0 mi East 8.1 mph - N/A   Haze
11:54 AM 30.9 °F 23.5 °F 23.0 °F 72% 29.92 in 6.0 mi East 8.1 mph - N/A   Haze
12:54 PM 30.9 °F 24.3 °F 23.0 °F 72% 29.90 in 7.0 mi SE 6.9 mph - N/A   Overcast
1:54 PM 30.9 °F 20.7 °F 25.0 °F 79% 29.87 in 5.0 mi ESE 13.8 mph - 0.00 in Rain Light Freezing Rain
2:09 PM 30.2 °F 25.4 °F 24.8 °F 80% 29.78 in 7.0 mi Variable 4.6 mph - 0.00 in   Mostly Cloudy
2:54 PM 30.9 °F 25.2 °F 25.0 °F 79% 29.88 in 6.0 mi SE 5.8 mph - 0.00 in   Haze
3:54 PM 30.0 °F 24.1 °F 24.1 °F 79% 29.88 in 6.0 mi ESE 5.8 mph - N/A   Haze
4:54 PM 28.9 °F 22.8 °F 25.0 °F 85% 29.88 in 6.0 mi ESE 5.8 mph - N/A   Overcast
5:54 PM 25.0 °F 19.3 °F 21.9 °F 88% 29.90 in 7.0 mi East 4.6 mph - N/A   Partly Cloudy
7:54 PM 21.9 °F 15.7 °F 21.0 °F 96% 29.95 in 5.0 mi NNW 4.6 mph - N/A   Mostly Cloudy
8:54 PM 24.1 °F 14.4 °F 21.9 °F 91% 29.95 in 6.0 mi NNW 9.2 mph - N/A   Clear
9:54 PM 21.9 °F 10.4 °F 19.9 °F 92% 29.95 in 6.0 mi NNW 11.5 mph - N/A   Clear
10:54 PM 21.9 °F 14.5 °F 19.9 °F 92% 29.95 in 6.0 mi WNW 5.8 mph - N/A   Clear
11:54 PM 25.0 °F 15.5 °F 21.9 °F 88% 29.96 in 6.0 mi WNW 9.2 mph - N/A   Overcast